This is the latest recevied weather packets stored in our database for station/object DG6YGE-6. If no packets are shown the sender has not sent any weather packets the latest 1 day(s).
| Time | Temp. | Humidity | Pressure | Rain* | Wind** | Luminosity | Snow |
|---|---|---|---|---|---|---|---|
| 1778082550 | 8.89° C | 94% | 1006.7 hPa | 0.25 mm | - | 57 W/m² | - |
| 1778081950 | 8.89° C | 94% | 1006.5 hPa | 0.25 mm | - | 57 W/m² | - |
| 1778080750 | 8.89° C | 94% | 1006.5 hPa | 0.51 mm | - | 97 W/m² | - |
| 1778080150 | 8.89° C | 94% | 1006.3 hPa | 0.25 mm | - | 84 W/m² | - |
| 1778078950 | 8.89° C | 94% | 1006.3 hPa | 0.76 mm | - | 111 W/m² | - |
| 1778075950 | 8.89° C | 94% | 1006.3 hPa | 1.02 mm | - | 130 W/m² | - |
| 1778075350 | 8.89° C | 94% | 1006.4 hPa | 0.76 mm | - | 85 W/m² | - |
| 1778074750 | 8.89° C | 94% | 1006.3 hPa | 0.76 mm | - | 65 W/m² | - |
| 1778073550 | 8.89° C | 94% | 1005.9 hPa | 0.76 mm | - | 96 W/m² | - |
| 1778072950 | 8.89° C | 94% | 1005.8 hPa | 0.76 mm | - | 129 W/m² | - |
| 1778071750 | 8.89° C | 94% | 1005.9 hPa | 0.76 mm | - | 131 W/m² | - |
| 1778071150 | 8.89° C | 95% | 1005.7 hPa | 0.76 mm | - | 156 W/m² | - |
| 1778069350 | 8.33° C | 94% | 1005.6 hPa | 1.02 mm | - | 113 W/m² | - |
| 1778066350 | 7.78° C | 94% | 1005.7 hPa | 0.76 mm | - | 114 W/m² | - |
| 1778065754 | 7.78° C | 94% | 1005.6 hPa | 0.76 mm | - | 96 W/m² | - |
| 1778065154 | 7.78° C | 94% | 1005.5 hPa | 0.51 mm | - | 117 W/m² | - |
| 1778063354 | 7.78° C | 94% | 1005.5 hPa | 0.51 mm | - | 96 W/m² | - |
| 1778062754 | 7.22° C | 94% | 1005.5 hPa | 0.76 mm | - | 74 W/m² | - |
| 1778062154 | 7.22° C | 94% | 1005.4 hPa | 0.76 mm | - | 75 W/m² | - |
| 1778060954 | 7.78° C | 94% | 1005.3 hPa | 0.76 mm | - | 133 W/m² | - |
| 1778060354 | 7.22° C | 94% | 1005.2 hPa | 0.76 mm | - | 124 W/m² | - |
| 1778059754 | 7.22° C | 94% | 1005.1 hPa | 1.02 mm | - | 104 W/m² | - |
| 1778059154 | 7.22° C | 94% | 1005.1 hPa | 1.02 mm | - | 125 W/m² | - |
| 1778058554 | 7.22° C | 94% | 1005 hPa | 0.76 mm | - | 123 W/m² | - |
| 1778057954 | 7.22° C | 94% | 1004.9 hPa | 1.02 mm | - | 131 W/m² | - |
* Rain latest hour (hover to see other rain measurements)
** Current wind speed in m/s (hover to see current wind gust speed)